Weather History for Alexandroupoli, Greece

Change the Weather History Date:

Saturday, February 16, 2013

  Actual Average Record
Temperature  
Mean Temperature 40 °F -  
Max Temperature 46 °F 52 °F 57 °F (1997)
Min Temperature 33 °F 37 °F 23 °F (2003)
Degree Days  
Heating Degree Days 26    
Moisture  
Dew Point 29 °F    
Average Humidity 64    
Maximum Humidity 81    
Minimum Humidity 36    
Precipitation  
Precipitation 0.00 in 0.07 in - ()
Sea Level Pressure  
Sea Level Pressure 30.14 in    
Wind  
Wind Speed - ()    
Max Wind Speed -    
Max Gust Speed -    
Visibility 6.0 miles    
Events      
Averages and records for this station are not official NWS values.
T = Trace of Precipitation, MM = Missing Value Source: Averaged Metar Reports

Daily Weather History Graph

Daily Weather History Graph

Search for Another Location

Airport:

Trip Planner

Search our weather history database for the weather conditions in past years. The results will help you decide how hot, cold, wet, or windy it might be!

Date:

Astronomy

Feb. 16, 2013 Rise Set
Actual Time 7:09 AM EET 5:52 PM EET
Civil Twilight 6:41 AM EET 6:20 PM EET
Nautical Twilight 6:08 AM EET 6:52 PM EET
Astronomical Twilight 5:37 AM EET 7:24 PM EET
Moon 10:06 AM EET (2/16) No Moon Set
Length of Visible Light 11h 39m
Length of Day
10h 42m
Waxing Crescent, 36% of the Moon is Illuminated
Feb 16
Waxing Crescent
Feb 17
First Quarter
Feb 25
Full
Mar 4
Last Quarter
Mar 11
New

Hourly Weather History & Observations

Time (EET) Temp. Dew Point Humidity Pressure Visibility Wind Dir Wind Speed Gust Speed Precip Events Conditions
12:20 AM 39.2 °F 32.0 °F 75% 30.09 in - North - - N/A   Scattered Clouds
12:50 AM 39.2 °F 32.0 °F 75% 30.09 in - North - - N/A   Scattered Clouds
1:20 AM 39.2 °F 32.0 °F 75% 30.09 in - North - - N/A   Scattered Clouds
1:50 AM 39.2 °F 32.0 °F 75% 30.09 in - North - - N/A   Scattered Clouds
2:00 AM 39 °F 33 °F 70% 30.12 in 6 mi Calm Calm - -   Scattered Clouds
2:20 AM 39.2 °F 32.0 °F 75% 30.09 in - North - - N/A   Scattered Clouds
2:50 AM 39.2 °F 33.8 °F 81% 30.09 in - North - - N/A   Scattered Clouds
3:20 AM 39.2 °F 33.8 °F 81% 30.09 in - North - - N/A   Scattered Clouds
3:50 AM 39.2 °F 32.0 °F 75% 30.12 in - North - - N/A   Scattered Clouds
4:20 AM 39.2 °F 32.0 °F 75% 30.12 in - North - - N/A   Scattered Clouds
4:50 AM 39.2 °F 32.0 °F 75% 30.12 in - North - - N/A   Scattered Clouds
5:20 AM 39.2 °F 32.0 °F 75% 30.12 in - North - - N/A   Scattered Clouds
5:50 AM 39.2 °F 32.0 °F 75% 30.12 in - North - - N/A   Scattered Clouds
6:20 AM 39.2 °F 32.0 °F 75% 30.12 in - North - - N/A   Scattered Clouds
6:50 AM 37.4 °F 32.0 °F 81% 30.12 in - North - - N/A   Mostly Cloudy
7:20 AM 37.4 °F 32.0 °F 81% 30.12 in - North - - N/A   Mostly Cloudy
7:50 AM 37.4 °F 28.4 °F 70% 30.12 in - North - - N/A   Scattered Clouds
8:00 AM 37 °F 28 °F 61% 30.15 in 6 mi Calm Calm - -   Partly Cloudy
8:20 AM 37.4 °F 28.4 °F 70% 30.12 in - North - - N/A   Scattered Clouds
8:50 AM 39.2 °F 30.2 °F 70% 30.15 in - North - - N/A   Scattered Clouds
9:20 AM 41.0 °F 32.0 °F 70% 30.15 in - North - - N/A   Scattered Clouds
9:50 AM 42.8 °F 32.0 °F 66% 30.15 in - North - - N/A   Scattered Clouds
10:20 AM 42.8 °F 33.8 °F 70% 30.18 in - North - - N/A   Scattered Clouds
10:50 AM 42.8 °F 26.6 °F 53% 30.18 in - North - - N/A   Partly Cloudy
11:20 AM 44.6 °F 28.4 °F 53% 30.18 in - North - - N/A   Scattered Clouds
11:50 AM 44.6 °F 28.4 °F 53% 30.18 in - North - - N/A   Scattered Clouds
12:20 PM 46.4 °F 30.2 °F 53% 30.18 in - North - - N/A   Scattered Clouds
12:50 PM 46.4 °F 30.2 °F 53% 30.18 in - North - - N/A   Scattered Clouds
1:20 PM 46.4 °F 30.2 °F 53% 30.18 in - North - - N/A   Scattered Clouds
1:50 PM 44.6 °F 26.6 °F 49% 30.15 in - North - - N/A   Scattered Clouds
2:00 PM 45 °F 27 °F 36% 30.16 in 6 mi Calm Calm - -   Scattered Clouds
2:20 PM 46.4 °F 28.4 °F 50% 30.15 in - North - - N/A   Scattered Clouds
2:50 PM 46.4 °F 26.6 °F 46% 30.15 in - North - - N/A   Partly Cloudy
3:20 PM 46.4 °F 26.6 °F 46% 30.15 in - North - - N/A   Partly Cloudy
3:50 PM 46.4 °F 28.4 °F 50% 30.15 in - North - - N/A   Partly Cloudy
4:20 PM 46.4 °F 28.4 °F 50% 30.15 in - North - - N/A   Partly Cloudy
4:50 PM 42.8 °F 26.6 °F 53% 30.15 in - North - - N/A   Scattered Clouds
5:20 PM 42.8 °F 26.6 °F 53% 30.15 in - North - - N/A   Scattered Clouds
5:50 PM 42.8 °F 28.4 °F 57% 30.15 in - North - - N/A   Scattered Clouds
6:20 PM 42.8 °F 28.4 °F 57% 30.15 in - North - - N/A   Scattered Clouds
6:50 PM 41.0 °F 30.2 °F 65% 30.15 in - North - - N/A   Scattered Clouds
7:20 PM 41.0 °F 30.2 °F 65% 30.15 in - North - - N/A   Scattered Clouds
7:50 PM 39.2 °F 24.8 °F 56% 30.15 in - North - - N/A   Clear
8:00 PM 40 °F 24 °F 40% 30.18 in 6 mi Calm Calm - -   Clear
8:20 PM 39.2 °F 24.8 °F 56% 30.15 in - North - - N/A   Clear
8:50 PM 39.2 °F 24.8 °F 56% 30.18 in - North - - N/A   Clear
9:20 PM 35.6 °F 28.4 °F 75% 30.18 in - North - - N/A   Clear
9:50 PM 35.6 °F 28.4 °F 75% 30.15 in - North - - N/A   Partly Cloudy
10:20 PM 35.6 °F 28.4 °F 75% 30.15 in - North - - N/A   Partly Cloudy
10:50 PM 33.8 °F 26.6 °F 75% 30.15 in - North - - N/A   Partly Cloudy
11:20 PM 33.8 °F 26.6 °F 75% 30.15 in - North - - N/A   Partly Cloudy
11:50 PM 33.8 °F 26.6 °F 75% 30.15 in - North - - N/A   Partly Cloudy